Year,Month,Day,Hour,Minute,Value (Times are PST for temperature in C)
2010,07,22,00,00,18.70
2010,07,22,00,01,18.60
2010,07,22,00,02,18.60
2010,07,22,00,03,18.60
2010,07,22,00,04,18.60
2010,07,22,00,05,18.60
2010,07,22,00,06,18.60
2010,07,22,00,07,18.50
2010,07,22,00,08,18.50
2010,07,22,00,09,18.50
2010,07,22,00,10,18.40
2010,07,22,00,11,18.40
2010,07,22,00,12,18.40
2010,07,22,00,13,18.30
2010,07,22,00,14,18.30
2010,07,22,00,15,18.30
2010,07,22,00,16,18.30
2010,07,22,00,17,18.20
2010,07,22,00,18,18.20
2010,07,22,00,19,18.20
2010,07,22,00,20,18.10
2010,07,22,00,21,18.10
2010,07,22,00,22,18.10
2010,07,22,00,23,18.00
2010,07,22,00,24,18.00
2010,07,22,00,25,17.90
2010,07,22,00,26,17.90
2010,07,22,00,27,17.90
2010,07,22,00,28,17.90
2010,07,22,00,29,17.80
2010,07,22,00,30,17.80
2010,07,22,00,31,17.80
2010,07,22,00,32,17.80
2010,07,22,00,33,17.80
2010,07,22,00,34,17.70
2010,07,22,00,35,17.70
2010,07,22,00,36,17.70
2010,07,22,00,37,17.70
2010,07,22,00,38,17.70
2010,07,22,00,39,17.60
2010,07,22,00,40,17.60
2010,07,22,00,41,17.60
2010,07,22,00,42,17.60
2010,07,22,00,43,17.60
2010,07,22,00,44,17.60
2010,07,22,00,45,17.60
2010,07,22,00,46,17.60
2010,07,22,00,47,17.60
2010,07,22,00,48,17.50
2010,07,22,00,49,17.50
2010,07,22,00,50,17.50
2010,07,22,00,51,17.50
2010,07,22,00,52,17.40
2010,07,22,00,53,17.40
2010,07,22,00,54,17.40
2010,07,22,00,55,17.30
2010,07,22,00,56,17.30
2010,07,22,00,57,17.30
2010,07,22,00,58,17.20
2010,07,22,00,59,17.20
2010,07,22,01,00,17.10
2010,07,22,01,01,17.10
2010,07,22,01,02,17.00
2010,07,22,01,03,17.00
2010,07,22,01,06,16.90
2010,07,22,01,07,16.80
2010,07,22,01,08,16.80
2010,07,22,01,09,16.80
2010,07,22,01,10,16.80
2010,07,22,01,11,16.70
2010,07,22,01,12,16.70
2010,07,22,01,13,16.70
2010,07,22,01,14,16.70
2010,07,22,01,15,16.70
2010,07,22,01,16,16.60
2010,07,22,01,17,16.60
2010,07,22,01,18,16.60
2010,07,22,01,19,16.60
2010,07,22,01,20,16.60
2010,07,22,01,21,16.50
2010,07,22,01,22,16.50
2010,07,22,01,23,16.40
2010,07,22,01,24,16.40
2010,07,22,01,25,16.40
2010,07,22,01,26,16.40
2010,07,22,01,27,16.40
2010,07,22,01,28,16.40
2010,07,22,01,29,16.40
2010,07,22,01,30,16.40
2010,07,22,01,31,16.40
2010,07,22,01,32,16.40
2010,07,22,01,33,16.40
2010,07,22,01,34,16.40
2010,07,22,01,35,16.40
2010,07,22,01,36,16.40
2010,07,22,01,37,16.40
2010,07,22,01,38,16.40
2010,07,22,01,39,16.30
2010,07,22,01,40,16.30
2010,07,22,01,41,16.30
2010,07,22,01,42,16.30
2010,07,22,01,43,16.30
2010,07,22,01,44,16.30
2010,07,22,01,45,16.20
2010,07,22,01,46,16.20
2010,07,22,01,47,16.20
2010,07,22,01,48,16.20
2010,07,22,01,49,16.20
2010,07,22,01,50,16.10
2010,07,22,01,51,16.10
2010,07,22,01,52,16.10
2010,07,22,01,53,16.10
2010,07,22,01,54,16.10
2010,07,22,01,55,16.10
2010,07,22,01,56,16.10
2010,07,22,01,57,16.10
2010,07,22,01,58,16.10
2010,07,22,01,59,16.00
2010,07,22,02,00,16.00
2010,07,22,02,01,16.00
2010,07,22,02,02,15.90
2010,07,22,02,03,15.90
2010,07,22,02,04,15.90
2010,07,22,02,05,15.80
2010,07,22,02,06,15.80
2010,07,22,02,07,15.70
2010,07,22,02,08,15.70
2010,07,22,02,09,15.70
2010,07,22,02,10,15.60
2010,07,22,02,11,15.60
2010,07,22,02,12,15.50
2010,07,22,02,13,15.50
2010,07,22,02,14,15.40
2010,07,22,02,15,15.40
2010,07,22,02,16,15.30
2010,07,22,02,17,15.30
2010,07,22,02,18,15.30
2010,07,22,02,19,15.20
2010,07,22,02,20,15.20
2010,07,22,02,21,15.20
2010,07,22,02,22,15.10
2010,07,22,02,23,15.10
2010,07,22,02,24,15.00
2010,07,22,02,25,15.00
2010,07,22,02,26,15.00
2010,07,22,02,27,15.00
2010,07,22,02,28,15.00
2010,07,22,02,29,15.00
2010,07,22,02,30,15.00
2010,07,22,02,31,15.00
2010,07,22,02,32,15.00
2010,07,22,02,33,15.00
2010,07,22,02,34,15.00
2010,07,22,02,35,15.00
2010,07,22,02,36,15.00
2010,07,22,02,37,15.00
2010,07,22,02,38,15.00
2010,07,22,02,39,15.00
2010,07,22,02,40,15.00
2010,07,22,02,41,15.00
2010,07,22,02,42,15.00
2010,07,22,02,43,15.10
2010,07,22,02,44,15.10
2010,07,22,02,45,15.20
2010,07,22,02,46,15.20
2010,07,22,02,47,15.20
2010,07,22,02,48,15.20
2010,07,22,02,49,15.20
2010,07,22,02,50,15.10
2010,07,22,02,51,15.10
2010,07,22,02,52,15.10
2010,07,22,02,53,15.10
2010,07,22,02,54,15.10
2010,07,22,02,55,15.10
2010,07,22,02,56,15.10
2010,07,22,02,57,15.10
2010,07,22,02,58,15.20
2010,07,22,02,59,15.20
2010,07,22,03,00,15.20
2010,07,22,03,01,15.20
2010,07,22,03,02,15.20
2010,07,22,03,03,15.20
2010,07,22,03,04,15.20
2010,07,22,03,05,15.20
2010,07,22,03,06,15.20
2010,07,22,03,07,15.20
2010,07,22,03,08,15.20
2010,07,22,03,09,15.20
2010,07,22,03,10,15.20
2010,07,22,03,11,15.20
2010,07,22,03,12,15.20
2010,07,22,03,13,15.20
2010,07,22,03,14,15.10
2010,07,22,03,15,15.10
2010,07,22,03,16,15.10
2010,07,22,03,17,15.00
2010,07,22,03,18,15.00
2010,07,22,03,19,15.00
2010,07,22,03,20,15.00
2010,07,22,03,21,15.00
2010,07,22,03,22,15.00
2010,07,22,03,23,15.00
2010,07,22,03,24,15.00
2010,07,22,03,25,15.00
2010,07,22,03,26,15.00
2010,07,22,03,27,15.00
2010,07,22,03,28,15.00
2010,07,22,03,29,15.00
2010,07,22,03,30,15.00
2010,07,22,03,31,15.00
2010,07,22,03,32,15.00
2010,07,22,03,33,15.00
2010,07,22,03,34,15.00
2010,07,22,03,35,15.00
2010,07,22,03,36,14.90
2010,07,22,03,37,14.90
2010,07,22,03,38,14.90
2010,07,22,03,39,14.90
2010,07,22,03,40,14.90
2010,07,22,03,41,14.90
2010,07,22,03,42,14.90
2010,07,22,03,43,14.90
2010,07,22,03,44,14.80
2010,07,22,03,45,14.80
2010,07,22,03,46,14.80
2010,07,22,03,47,14.80
2010,07,22,03,48,14.90
2010,07,22,03,49,14.90
2010,07,22,03,50,14.90
2010,07,22,03,51,14.90
2010,07,22,03,52,14.90
2010,07,22,03,53,14.90
2010,07,22,03,54,14.90
2010,07,22,03,55,14.90
2010,07,22,03,56,14.90
2010,07,22,03,57,14.90
2010,07,22,03,58,14.90
2010,07,22,03,59,14.90
2010,07,22,04,00,14.90
2010,07,22,04,01,14.90
2010,07,22,04,02,14.90
2010,07,22,04,03,14.90
2010,07,22,04,04,14.90
2010,07,22,04,05,14.90
2010,07,22,04,06,14.90
2010,07,22,04,07,14.90
2010,07,22,04,08,14.80
2010,07,22,04,09,14.80
2010,07,22,04,10,14.80
2010,07,22,04,11,14.80
2010,07,22,04,12,14.80
2010,07,22,04,13,14.80
2010,07,22,04,14,14.80
2010,07,22,04,15,14.80
2010,07,22,04,16,14.80
2010,07,22,04,17,14.80
2010,07,22,04,18,14.80
2010,07,22,04,19,14.80
2010,07,22,04,20,14.80
2010,07,22,04,21,14.80
2010,07,22,04,22,14.80
2010,07,22,04,23,14.80
2010,07,22,04,24,14.80
2010,07,22,04,25,14.80
2010,07,22,04,26,14.80
2010,07,22,04,27,14.80
2010,07,22,04,28,14.70
2010,07,22,04,29,14.70
2010,07,22,04,30,14.70
2010,07,22,04,31,14.70
2010,07,22,04,32,14.70
2010,07,22,04,33,14.70
2010,07,22,04,34,14.70
2010,07,22,04,35,14.70
2010,07,22,04,36,14.70
2010,07,22,04,37,14.70
2010,07,22,04,38,14.70
2010,07,22,04,39,14.70
2010,07,22,04,40,14.70
2010,07,22,04,41,14.70
2010,07,22,04,42,14.70
2010,07,22,04,43,14.70
2010,07,22,04,44,14.70
2010,07,22,04,45,14.70
2010,07,22,04,46,14.70
2010,07,22,04,47,14.70
2010,07,22,04,48,14.70
2010,07,22,04,49,14.70
2010,07,22,04,50,14.70
2010,07,22,04,51,14.70
2010,07,22,04,52,14.70
2010,07,22,04,53,14.80
2010,07,22,04,54,14.80
2010,07,22,04,55,14.80
2010,07,22,04,56,14.80
2010,07,22,04,57,14.80
2010,07,22,04,58,14.80
2010,07,22,04,59,14.80
2010,07,22,05,00,14.80
2010,07,22,05,01,14.80
2010,07,22,05,02,14.80
2010,07,22,05,03,14.80
2010,07,22,05,04,14.80
2010,07,22,05,05,14.80
2010,07,22,05,06,14.80
2010,07,22,05,07,14.80
2010,07,22,05,08,14.90
2010,07,22,05,09,14.90
2010,07,22,05,10,14.90
2010,07,22,05,11,14.90
2010,07,22,05,12,14.90
2010,07,22,05,13,14.90
2010,07,22,05,14,14.90
2010,07,22,05,15,14.90
2010,07,22,05,16,14.90
2010,07,22,05,17,14.90
2010,07,22,05,18,14.90
2010,07,22,05,19,14.90
2010,07,22,05,20,14.90
2010,07,22,05,21,14.90
2010,07,22,05,22,14.90
2010,07,22,05,23,14.90
2010,07,22,05,24,14.90
2010,07,22,05,25,14.90
2010,07,22,05,26,14.90
2010,07,22,05,27,14.90
2010,07,22,05,28,14.90
2010,07,22,05,29,14.90
2010,07,22,05,30,14.90
2010,07,22,05,31,14.80
2010,07,22,05,32,14.80
2010,07,22,05,33,14.80
2010,07,22,05,34,14.80
2010,07,22,05,35,14.80
2010,07,22,05,36,14.80
2010,07,22,05,37,14.80
2010,07,22,05,38,14.70
2010,07,22,05,39,14.70
2010,07,22,05,40,14.70
2010,07,22,05,41,14.70
2010,07,22,05,42,14.70
2010,07,22,05,43,14.70
2010,07,22,05,44,14.70
2010,07,22,05,45,14.70
2010,07,22,05,46,14.70
2010,07,22,05,47,14.70
2010,07,22,05,48,14.70
2010,07,22,05,49,14.80
2010,07,22,05,50,14.70
2010,07,22,05,51,14.80
2010,07,22,05,52,14.80
2010,07,22,05,53,14.80
2010,07,22,05,54,14.80
2010,07,22,05,55,14.80
2010,07,22,05,56,14.80
2010,07,22,05,57,14.80
2010,07,22,05,58,14.80
2010,07,22,05,59,14.80
2010,07,22,06,00,14.80
2010,07,22,06,01,14.80
2010,07,22,06,02,14.80
2010,07,22,06,03,14.80
2010,07,22,06,04,14.80
2010,07,22,06,05,14.80
2010,07,22,06,06,14.80
2010,07,22,06,07,14.80
2010,07,22,06,08,14.80
2010,07,22,06,09,14.80
2010,07,22,06,10,14.80
2010,07,22,06,11,14.80
2010,07,22,06,12,14.70
2010,07,22,06,13,14.70
2010,07,22,06,14,14.70
2010,07,22,06,15,14.70
2010,07,22,06,16,14.70
2010,07,22,06,17,14.70
2010,07,22,06,18,14.70
2010,07,22,06,19,14.70
2010,07,22,06,20,14.70
2010,07,22,06,21,14.70
2010,07,22,06,22,14.70
2010,07,22,06,23,14.70
2010,07,22,06,24,14.80
2010,07,22,06,25,14.80
2010,07,22,06,26,14.80
2010,07,22,06,27,14.80
2010,07,22,06,28,14.80
2010,07,22,06,29,14.80
2010,07,22,06,30,14.80
2010,07,22,06,31,14.80
2010,07,22,06,32,14.80
2010,07,22,06,33,14.80
2010,07,22,06,34,14.80
2010,07,22,06,35,14.80
2010,07,22,06,36,14.90
2010,07,22,06,37,14.90
2010,07,22,06,38,14.90
2010,07,22,06,39,14.90
2010,07,22,06,40,14.80
2010,07,22,06,41,14.80
2010,07,22,06,42,14.80
2010,07,22,06,43,14.80
2010,07,22,06,44,14.80
2010,07,22,06,45,14.80
2010,07,22,06,46,14.80
2010,07,22,06,47,14.80
2010,07,22,06,48,14.80
2010,07,22,06,49,14.80
2010,07,22,06,50,14.80
2010,07,22,06,51,14.80
2010,07,22,06,52,14.80
2010,07,22,06,53,14.80
2010,07,22,06,54,14.80
2010,07,22,06,55,14.80
2010,07,22,06,56,14.80
2010,07,22,06,57,14.90
2010,07,22,06,58,14.90
2010,07,22,06,59,15.00
2010,07,22,07,00,15.00
2010,07,22,07,01,15.00
2010,07,22,07,02,15.00
2010,07,22,07,03,15.00
2010,07,22,07,04,15.00
2010,07,22,07,05,15.00
2010,07,22,07,06,15.00
2010,07,22,07,07,15.00
2010,07,22,07,08,15.00
2010,07,22,07,09,15.00
2010,07,22,07,10,15.00
2010,07,22,07,11,15.00
2010,07,22,07,12,15.00
2010,07,22,07,13,15.00
2010,07,22,07,14,15.00
2010,07,22,07,15,15.00
2010,07,22,07,16,15.00
2010,07,22,07,17,15.00
2010,07,22,07,18,15.00
2010,07,22,07,19,15.00
2010,07,22,07,20,15.00
2010,07,22,07,21,15.00
2010,07,22,07,22,15.00
2010,07,22,07,23,15.00
2010,07,22,07,24,15.00
2010,07,22,07,25,15.00
2010,07,22,07,26,15.00
2010,07,22,07,27,15.00
2010,07,22,07,28,15.00
2010,07,22,07,29,15.10
2010,07,22,07,30,15.10
2010,07,22,07,31,15.10
2010,07,22,07,32,15.10
2010,07,22,07,33,15.20
2010,07,22,07,34,15.20
2010,07,22,07,35,15.20
2010,07,22,07,36,15.30
2010,07,22,07,37,15.30
2010,07,22,07,38,15.30
2010,07,22,07,39,15.30
2010,07,22,07,40,15.40
2010,07,22,07,41,15.40
2010,07,22,07,42,15.40
2010,07,22,07,43,15.40
2010,07,22,07,44,15.40
2010,07,22,07,45,15.50
2010,07,22,07,46,15.50
2010,07,22,07,47,15.50
2010,07,22,07,48,15.50
2010,07,22,07,49,15.60
2010,07,22,07,50,15.60
2010,07,22,07,51,15.60
2010,07,22,07,52,15.60
2010,07,22,07,53,15.70
2010,07,22,07,54,15.70
2010,07,22,07,55,15.70
2010,07,22,07,56,15.80
2010,07,22,07,57,15.80
2010,07,22,07,58,15.80
2010,07,22,07,59,15.80
2010,07,22,08,00,15.90
2010,07,22,08,01,15.90
2010,07,22,08,02,15.90
2010,07,22,08,03,15.90
2010,07,22,08,04,15.90
2010,07,22,08,05,15.90
2010,07,22,08,06,15.90
2010,07,22,08,07,16.00
2010,07,22,08,08,16.00
2010,07,22,08,09,16.00
2010,07,22,08,10,16.00
2010,07,22,08,11,16.00
2010,07,22,08,12,16.10
2010,07,22,08,13,16.10
2010,07,22,08,14,16.10
2010,07,22,08,15,16.10
2010,07,22,08,16,16.10
2010,07,22,08,17,16.10
2010,07,22,08,18,16.20
2010,07,22,08,19,16.20
2010,07,22,08,20,16.20
2010,07,22,08,21,16.20
2010,07,22,08,22,16.20
2010,07,22,08,23,16.20
2010,07,22,08,24,16.20
2010,07,22,08,25,16.20
2010,07,22,08,26,16.20
2010,07,22,08,27,16.30
2010,07,22,08,28,16.30
2010,07,22,08,29,16.30
2010,07,22,08,30,16.30
2010,07,22,08,31,16.30
2010,07,22,08,32,16.30
2010,07,22,08,33,16.30
2010,07,22,08,34,16.30
2010,07,22,08,35,16.30
2010,07,22,08,36,16.30
2010,07,22,08,37,16.30
2010,07,22,08,38,16.30
2010,07,22,08,39,16.30
2010,07,22,08,40,16.30
2010,07,22,08,41,16.30
2010,07,22,08,42,16.30
2010,07,22,08,43,16.30
2010,07,22,08,44,16.30
2010,07,22,08,45,16.30
2010,07,22,08,46,16.30
2010,07,22,08,47,16.30
2010,07,22,08,48,16.30
2010,07,22,08,49,16.30
2010,07,22,08,50,16.30
2010,07,22,08,51,16.30
2010,07,22,08,52,16.40
2010,07,22,08,53,16.40
2010,07,22,08,54,16.40
2010,07,22,08,55,16.40
2010,07,22,08,56,16.50
2010,07,22,08,57,16.50
2010,07,22,08,58,16.60
2010,07,22,08,59,16.60
2010,07,22,09,00,16.60
2010,07,22,09,01,16.60
2010,07,22,09,02,16.60
2010,07,22,09,03,16.70
2010,07,22,09,04,16.70
2010,07,22,09,05,16.70
2010,07,22,09,06,16.70
2010,07,22,09,07,16.70
2010,07,22,09,08,16.70
2010,07,22,09,09,16.70
2010,07,22,09,10,16.80
2010,07,22,09,11,16.80
2010,07,22,09,12,16.80
2010,07,22,09,13,16.80
2010,07,22,09,14,16.80
2010,07,22,09,15,16.80
2010,07,22,09,16,16.80
2010,07,22,09,17,16.80
2010,07,22,09,18,16.90
2010,07,22,09,19,16.90
2010,07,22,09,20,16.90
2010,07,22,09,21,16.90
2010,07,22,09,22,16.90
2010,07,22,09,23,17.00
2010,07,22,09,24,17.00
2010,07,22,09,25,17.00
2010,07,22,09,26,17.10
2010,07,22,09,27,17.10
2010,07,22,09,28,17.10
2010,07,22,09,29,17.10
2010,07,22,09,30,17.10
2010,07,22,09,31,17.10
2010,07,22,09,32,17.10
2010,07,22,09,33,17.20
2010,07,22,09,34,17.20
2010,07,22,09,35,17.20
2010,07,22,09,36,17.20
2010,07,22,09,37,17.20
2010,07,22,09,38,17.20
2010,07,22,09,39,17.20
2010,07,22,09,40,17.20
2010,07,22,09,41,17.30
2010,07,22,09,42,17.30
2010,07,22,09,43,17.30
2010,07,22,09,44,17.30
2010,07,22,09,45,17.40
2010,07,22,09,46,17.40
2010,07,22,09,47,17.40
2010,07,22,09,48,17.40
2010,07,22,09,49,17.40
2010,07,22,09,50,17.40
2010,07,22,09,51,17.40
2010,07,22,09,52,17.40
2010,07,22,09,53,17.50
2010,07,22,09,54,17.50
2010,07,22,09,55,17.50
2010,07,22,09,56,17.50
2010,07,22,09,57,17.60
2010,07,22,09,58,17.60
2010,07,22,09,59,17.60
2010,07,22,10,00,17.60
2010,07,22,10,01,17.70
2010,07,22,10,02,17.70
2010,07,22,10,03,17.70
2010,07,22,10,04,17.70
2010,07,22,10,05,17.80
2010,07,22,10,06,17.80
2010,07,22,10,07,17.80
2010,07,22,10,08,17.90
2010,07,22,10,09,17.90
2010,07,22,10,10,18.00
2010,07,22,10,11,18.00
2010,07,22,10,12,18.10
2010,07,22,10,13,18.10
2010,07,22,10,14,18.20
2010,07,22,10,15,18.30
2010,07,22,10,16,18.30
2010,07,22,10,17,18.40
2010,07,22,10,18,18.50
2010,07,22,10,19,18.60
2010,07,22,10,20,18.70
2010,07,22,10,21,18.80
2010,07,22,10,22,18.80
2010,07,22,10,23,18.80
2010,07,22,10,24,18.90
2010,07,22,10,25,18.90
2010,07,22,10,26,18.90
2010,07,22,10,27,18.90
2010,07,22,10,28,18.90
2010,07,22,10,29,18.90
2010,07,22,10,30,18.90
2010,07,22,10,31,19.00
2010,07,22,10,32,19.00
2010,07,22,10,33,19.10
2010,07,22,10,34,19.10
2010,07,22,10,35,19.10
2010,07,22,10,36,19.20
2010,07,22,10,37,19.20
2010,07,22,10,38,19.20
2010,07,22,10,39,19.30
2010,07,22,10,40,19.30
2010,07,22,10,41,19.30
2010,07,22,10,42,19.30
2010,07,22,10,43,19.30
2010,07,22,10,44,19.30
2010,07,22,10,45,19.30
2010,07,22,10,46,19.30
2010,07,22,10,47,19.40
2010,07,22,10,48,19.40
2010,07,22,10,49,19.50
2010,07,22,10,50,19.50
2010,07,22,10,51,19.60
2010,07,22,10,52,19.70
2010,07,22,10,53,19.70
2010,07,22,10,54,19.80
2010,07,22,10,55,19.80
2010,07,22,10,56,19.90
2010,07,22,10,57,20.00
2010,07,22,10,58,20.00
2010,07,22,10,59,20.10
2010,07,22,11,00,20.20
2010,07,22,11,01,20.20
2010,07,22,11,02,20.20
2010,07,22,11,03,20.20
2010,07,22,11,04,20.20
2010,07,22,11,05,20.20
2010,07,22,11,06,20.20
2010,07,22,11,07,20.20
2010,07,22,11,08,20.10
2010,07,22,11,09,20.10
2010,07,22,11,10,20.10
2010,07,22,11,11,20.10
2010,07,22,11,12,20.10
2010,07,22,11,13,20.10
2010,07,22,11,14,20.10
2010,07,22,11,15,20.10
2010,07,22,11,16,20.10
2010,07,22,11,17,20.10
2010,07,22,11,18,20.10
2010,07,22,11,19,20.10
2010,07,22,11,20,20.10
2010,07,22,11,21,20.10
2010,07,22,11,22,20.10
2010,07,22,11,23,20.00
2010,07,22,11,24,20.00
2010,07,22,11,25,20.00
2010,07,22,11,26,20.00
2010,07,22,11,27,20.00
2010,07,22,11,28,19.90
2010,07,22,11,29,19.90
2010,07,22,11,30,19.90
2010,07,22,11,31,19.90
2010,07,22,11,32,19.80
2010,07,22,11,33,19.80
2010,07,22,11,34,19.70
2010,07,22,11,35,19.70
2010,07,22,11,36,19.60
2010,07,22,11,37,19.60
2010,07,22,11,38,19.50
2010,07,22,11,39,19.40
2010,07,22,11,40,19.40
2010,07,22,11,41,19.40
2010,07,22,11,42,19.30
2010,07,22,11,43,19.30
2010,07,22,11,44,19.30
2010,07,22,11,45,19.30
2010,07,22,11,46,19.30
2010,07,22,11,47,19.30
2010,07,22,11,48,19.30
2010,07,22,11,49,19.30
2010,07,22,11,50,19.30
2010,07,22,11,51,19.30
2010,07,22,11,52,19.30
2010,07,22,11,53,19.20
2010,07,22,11,54,19.30
2010,07,22,11,55,19.30
2010,07,22,11,56,19.30
2010,07,22,11,57,19.30
2010,07,22,11,58,19.30
2010,07,22,11,59,19.30
2010,07,22,12,00,19.30
2010,07,22,12,01,19.30
2010,07,22,12,02,19.30
2010,07,22,12,03,19.30
2010,07,22,12,04,19.30
2010,07,22,12,05,19.30
2010,07,22,12,06,19.30
2010,07,22,12,07,19.30
2010,07,22,12,08,19.30
2010,07,22,12,09,19.30
2010,07,22,12,10,19.30
2010,07,22,12,11,19.40
2010,07,22,12,12,19.40
2010,07,22,12,13,19.40
2010,07,22,12,14,19.40
2010,07,22,12,15,19.40
2010,07,22,12,16,19.40
2010,07,22,12,17,19.50
2010,07,22,12,18,19.60
2010,07,22,12,19,19.60
2010,07,22,12,20,19.70
2010,07,22,12,21,19.80
2010,07,22,12,22,19.90
2010,07,22,12,23,19.90
2010,07,22,12,24,20.00
2010,07,22,12,25,20.00
2010,07,22,12,26,20.10
2010,07,22,12,27,20.20
2010,07,22,12,28,20.20
2010,07,22,12,29,20.30
2010,07,22,12,30,20.40
2010,07,22,12,31,20.50
2010,07,22,12,32,20.60
2010,07,22,12,33,20.70
2010,07,22,12,34,20.90
2010,07,22,12,35,21.00
2010,07,22,12,36,21.10
2010,07,22,12,37,21.10
2010,07,22,12,38,21.10
2010,07,22,12,39,21.10
2010,07,22,12,40,21.10
2010,07,22,12,41,21.10
2010,07,22,12,42,21.20
2010,07,22,12,43,21.20
2010,07,22,12,44,21.20
2010,07,22,12,45,21.30
2010,07,22,12,46,21.30
2010,07,22,12,47,21.40
2010,07,22,12,48,21.50
2010,07,22,12,49,21.70
2010,07,22,12,50,21.80
2010,07,22,12,51,21.90
2010,07,22,12,52,21.90
2010,07,22,12,53,22.00
2010,07,22,12,54,22.10
2010,07,22,12,55,22.10
2010,07,22,12,56,22.20
2010,07,22,12,57,22.20
2010,07,22,12,58,22.30
2010,07,22,12,59,22.30
2010,07,22,13,00,22.40
2010,07,22,13,01,22.40
2010,07,22,13,02,22.40
2010,07,22,13,03,22.40
2010,07,22,13,04,22.40
2010,07,22,13,05,22.30
2010,07,22,13,06,22.30
2010,07,22,13,07,22.30
2010,07,22,13,08,22.30
2010,07,22,13,09,22.30
2010,07,22,13,10,22.30
2010,07,22,13,11,22.30
2010,07,22,13,12,22.30
2010,07,22,13,13,22.30
2010,07,22,13,14,22.20
2010,07,22,13,15,22.20
2010,07,22,13,16,22.20
2010,07,22,13,17,22.20
2010,07,22,13,18,22.20
2010,07,22,13,19,22.10
2010,07,22,13,20,22.10
2010,07,22,13,21,22.10
2010,07,22,13,22,22.10
2010,07,22,13,23,22.10
2010,07,22,13,24,22.10
2010,07,22,13,25,22.10
2010,07,22,13,26,22.20
2010,07,22,13,27,22.20
2010,07,22,13,28,22.20
2010,07,22,13,29,22.20
2010,07,22,13,30,22.20
2010,07,22,13,31,22.20
2010,07,22,13,32,22.10
2010,07,22,13,33,22.10
2010,07,22,13,34,22.00
2010,07,22,13,35,22.00
2010,07,22,13,36,21.90
2010,07,22,13,37,21.80
2010,07,22,13,38,21.80
2010,07,22,13,39,21.80
2010,07,22,13,40,21.70
2010,07,22,13,41,21.70
2010,07,22,13,42,21.60
2010,07,22,13,43,21.60
2010,07,22,13,44,21.50
2010,07,22,13,45,21.50
2010,07,22,13,46,21.50
2010,07,22,13,47,21.50
2010,07,22,13,48,21.50
2010,07,22,13,49,21.50
2010,07,22,13,50,21.50
2010,07,22,13,51,21.50
2010,07,22,13,52,21.50
2010,07,22,13,53,21.50
2010,07,22,13,54,21.60
2010,07,22,13,55,21.50
2010,07,22,13,56,21.50
2010,07,22,13,57,21.50
2010,07,22,13,58,21.50
2010,07,22,13,59,21.60
2010,07,22,14,00,21.60
2010,07,22,14,01,21.60
2010,07,22,14,02,21.60
2010,07,22,14,03,21.60
2010,07,22,14,04,21.60
2010,07,22,14,05,21.60
2010,07,22,14,06,21.70
2010,07,22,14,07,21.70
2010,07,22,14,08,21.80
2010,07,22,14,09,21.80
2010,07,22,14,10,21.90
2010,07,22,14,11,22.00
2010,07,22,14,12,22.10
2010,07,22,14,13,22.10
2010,07,22,14,14,22.20
2010,07,22,14,15,22.20
2010,07,22,14,16,22.30
2010,07,22,14,17,22.30
2010,07,22,14,18,22.40
2010,07,22,14,19,22.40
2010,07,22,14,20,22.50
2010,07,22,14,21,22.60
2010,07,22,14,22,22.60
2010,07,22,14,23,22.70
2010,07,22,14,24,22.70
2010,07,22,14,25,22.80
2010,07,22,14,26,22.80
2010,07,22,14,27,22.80
2010,07,22,14,28,22.70
2010,07,22,14,29,22.70
2010,07,22,14,30,22.60
2010,07,22,14,31,22.60
2010,07,22,14,32,22.60
2010,07,22,14,33,22.60
2010,07,22,14,34,22.70
2010,07,22,14,35,22.70
2010,07,22,14,36,22.90
2010,07,22,14,37,22.90
2010,07,22,14,38,23.00
2010,07,22,14,39,23.10
2010,07,22,14,40,23.20
2010,07,22,14,41,23.30
2010,07,22,14,42,23.40
2010,07,22,14,43,23.50
2010,07,22,14,44,23.60
2010,07,22,14,45,23.70
2010,07,22,14,46,23.80
2010,07,22,14,47,23.80
2010,07,22,14,48,23.90
2010,07,22,14,49,24.00
2010,07,22,14,50,24.00
2010,07,22,14,51,24.10
2010,07,22,14,52,24.00
2010,07,22,14,53,23.90
2010,07,22,14,54,23.80
2010,07,22,14,55,23.60
2010,07,22,14,56,23.60
2010,07,22,14,57,23.60
2010,07,22,14,58,23.60
2010,07,22,14,59,23.60
2010,07,22,15,00,23.60
2010,07,22,15,01,23.60
2010,07,22,15,02,23.70
2010,07,22,15,03,23.70
2010,07,22,15,04,23.70
2010,07,22,15,05,23.80
2010,07,22,15,06,23.90
2010,07,22,15,07,24.00
2010,07,22,15,08,24.00
2010,07,22,15,09,24.10
2010,07,22,15,10,24.20
2010,07,22,15,11,24.20
2010,07,22,15,12,24.20
2010,07,22,15,13,24.10
2010,07,22,15,14,24.10
2010,07,22,15,15,24.00
2010,07,22,15,16,23.90
2010,07,22,15,17,23.80
2010,07,22,15,18,23.80
2010,07,22,15,19,23.80
2010,07,22,15,20,23.80
2010,07,22,15,21,23.90
2010,07,22,15,22,24.00
2010,07,22,15,23,24.10
2010,07,22,15,24,24.20
2010,07,22,15,25,24.30
2010,07,22,15,26,24.30
2010,07,22,15,27,24.40
2010,07,22,15,28,24.40
2010,07,22,15,29,24.40
2010,07,22,15,30,24.40
2010,07,22,15,31,24.40
2010,07,22,15,32,24.30
2010,07,22,15,33,24.30
2010,07,22,15,34,24.30
2010,07,22,15,35,24.20
2010,07,22,15,36,24.20
2010,07,22,15,37,24.10
2010,07,22,15,38,24.10
2010,07,22,15,39,24.20
2010,07,22,15,40,24.20
2010,07,22,15,41,24.30
2010,07,22,15,42,24.40
2010,07,22,15,43,24.40
2010,07,22,15,44,24.50
2010,07,22,15,45,24.60
2010,07,22,15,46,24.70
2010,07,22,15,47,24.80
2010,07,22,15,48,24.80
2010,07,22,15,49,25.00
2010,07,22,15,50,25.10
2010,07,22,15,51,25.00
2010,07,22,15,52,25.00
2010,07,22,15,53,24.90
2010,07,22,15,54,24.80
2010,07,22,15,55,24.80
2010,07,22,15,56,24.70
2010,07,22,15,57,24.60
2010,07,22,15,58,24.50
2010,07,22,15,59,24.40
2010,07,22,16,00,24.30
2010,07,22,16,01,24.30
2010,07,22,16,02,24.30
2010,07,22,16,03,24.30
2010,07,22,16,04,24.30
2010,07,22,16,05,24.30
2010,07,22,16,06,24.30
2010,07,22,16,07,24.30
2010,07,22,16,08,24.30
2010,07,22,16,09,24.30
2010,07,22,16,10,24.30
2010,07,22,16,11,24.30
2010,07,22,16,12,24.30
2010,07,22,16,13,24.30
2010,07,22,16,14,24.30
2010,07,22,16,15,24.30
2010,07,22,16,16,24.20
2010,07,22,16,17,24.20
2010,07,22,16,18,24.30
2010,07,22,16,19,24.30
2010,07,22,16,20,24.30
2010,07,22,16,21,24.30
2010,07,22,16,22,24.40
2010,07,22,16,23,24.40
2010,07,22,16,24,24.40
2010,07,22,16,25,24.40
2010,07,22,16,26,24.50
2010,07,22,16,27,24.50
2010,07,22,16,28,24.50
2010,07,22,16,29,24.40
2010,07,22,16,30,24.40
2010,07,22,16,31,24.40
2010,07,22,16,32,24.40
2010,07,22,16,33,24.40
2010,07,22,16,34,24.40
2010,07,22,16,35,24.40
2010,07,22,16,36,24.40
2010,07,22,16,37,24.30
2010,07,22,16,38,24.30
2010,07,22,16,39,24.30
2010,07,22,16,40,24.30
2010,07,22,16,41,24.40
2010,07,22,16,42,24.40
2010,07,22,16,43,24.40
2010,07,22,16,44,24.50
2010,07,22,16,45,24.60
2010,07,22,16,46,24.60
2010,07,22,16,47,24.60
2010,07,22,16,48,24.60
2010,07,22,16,49,24.60
2010,07,22,16,50,24.70
2010,07,22,16,51,24.60
2010,07,22,16,52,24.60
2010,07,22,16,53,24.60
2010,07,22,16,54,24.60
2010,07,22,16,55,24.60
2010,07,22,16,56,24.60
2010,07,22,16,57,24.60
2010,07,22,16,58,24.60
2010,07,22,16,59,24.60
2010,07,22,17,00,24.70
2010,07,22,17,01,24.70
2010,07,22,17,02,24.70
2010,07,22,17,03,24.70
2010,07,22,17,04,24.60
2010,07,22,17,05,24.50
2010,07,22,17,06,24.50
2010,07,22,17,07,24.50
2010,07,22,17,08,24.50
2010,07,22,17,09,24.50
2010,07,22,17,10,24.60
2010,07,22,17,11,24.60
2010,07,22,17,12,24.60
2010,07,22,17,13,24.60
2010,07,22,17,14,24.60
2010,07,22,17,15,24.60
2010,07,22,17,16,24.60
2010,07,22,17,17,24.60
2010,07,22,17,18,24.60
2010,07,22,17,19,24.60
2010,07,22,17,20,24.60
2010,07,22,17,21,24.60